Satellite: CO-58
Catalog number: 28895
Epoch time:      10315.40546720
Element set:     725
Inclination:      097.9937 deg
RA of node:       194.8261 deg
Eccentricity:    0.0017912
Arg of perigee:   180.1255 deg
Mean anomaly:     179.9918 deg
Mean motion:   14.59961430 rev/day
Decay rate:       3.27e-06 rev/day^2
Epoch rev:           26846
Checksum:              348

Satellite: FALCON
Catalog number: 30776
Epoch time:      10314.94227193
Element set:    0967
Inclination:      035.4338 deg
RA of node:       233.1511 deg
Eccentricity:    0.0001401
Arg of perigee:   333.6075 deg
Mean anomaly:     026.4575 deg
Mean motion:   15.03936037 rev/day
Decay rate:       9.62e-06 rev/day^2
Epoch rev:           20216
Checksum:              269

Satellite: MAST
Catalog number: 31126
Epoch time:      10314.56511430
Element set:    0008
Inclination:      097.9219 deg
RA of node:       348.8831 deg
Eccentricity:    0.0095030
Arg of perigee:   130.5643 deg
Mean anomaly:     230.3900 deg
Mean motion:   14.53640389 rev/day
Decay rate:       2.75e-06 rev/day^2
Epoch rev:           18932
Checksum:              272

Satellite: CAPE1
Catalog number: 31130
Epoch time:      10315.99791442
Element set:      29
Inclination:      097.9215 deg
RA of node:       347.3636 deg
Eccentricity:    0.0103701
Arg of perigee:   135.2832 deg
Mean anomaly:     225.6768 deg
Mean motion:   14.52248903 rev/day
Decay rate:       2.48e-06 rev/day^2
Epoch rev:           18911
Checksum:              293

Satellite: COMPASS
Catalog number: 32787
Epoch time:      10315.96935591
Element set:     828
Inclination:      097.8781 deg
RA of node:       018.5670 deg
Eccentricity:    0.0015819
Arg of perigee:   160.8655 deg
Mean anomaly:     199.3106 deg
Mean motion:   14.82035921 rev/day
Decay rate:       7.31e-06 rev/day^2
Epoch rev:           13738
Checksum:              330

Satellite: AAUSAT2
Catalog number: 32788
Epoch time:      10315.89020726
Element set:     817
Inclination:      097.8789 deg
RA of node:       018.6515 deg
Eccentricity:    0.0015398
Arg of perigee:   161.4675 deg
Mean anomaly:     198.7072 deg
Mean motion:   14.82189331 rev/day
Decay rate:       8.29e-06 rev/day^2
Epoch rev:           13738
Checksum:              344

Satellite: DO-64
Catalog number: 32789
Epoch time:      10315.88089186
Element set:     834
Inclination:      097.8853 deg
RA of node:       019.2958 deg
Eccentricity:    0.0015850
Arg of perigee:   160.1800 deg
Mean anomaly:     200.0108 deg
Mean motion:   14.82419852 rev/day
Decay rate:      1.231e-05 rev/day^2
Epoch rev:           13738
Checksum:              314

Satellite: CO-66
Catalog number: 32791
Epoch time:      10314.32577096
Element set:    0819
Inclination:      097.8802 deg
RA of node:       016.9437 deg
Eccentricity:    0.0015920
Arg of perigee:   164.6765 deg
Mean anomaly:     195.4924 deg
Mean motion:   14.81789807 rev/day
Decay rate:        8.3e-07 rev/day^2
Epoch rev:           13709
Checksum:              345

Satellite: RS-30
Catalog number: 32953
Epoch time:      10316.06860192
Element set:     208
Inclination:      082.4988 deg
RA of node:       297.7209 deg
Eccentricity:    0.0019509
Arg of perigee:   136.1000 deg
Mean anomaly:     224.1632 deg
Mean motion:   12.43009222 rev/day
Decay rate:        1.0e-07 rev/day^2
Epoch rev:           11211
Checksum:              251

Satellite: TACSAT-3
Catalog number: 35001
Epoch time:      10314.74981748
Element set:    0442
Inclination:      040.4545 deg
RA of node:       052.7320 deg
Eccentricity:    0.0022552
Arg of perigee:   019.6686 deg
Mean anomaly:     340.4996 deg
Mean motion:   15.43502525 rev/day
Decay rate:      7.524e-05 rev/day^2
Epoch rev:           08327
Checksum:              286

Satellite: PHARMSAT
Catalog number: 35002
Epoch time:      10315.56696832
Element set:     401
Inclination:      040.4686 deg
RA of node:       045.3982 deg
Eccentricity:    0.0024696
Arg of perigee:   028.4528 deg
Mean anomaly:     331.7625 deg
Mean motion:   15.43855331 rev/day
Decay rate:      6.930e-05 rev/day^2
Epoch rev:            8342
Checksum:              293

Satellite: HAWKSAT1
Catalog number: 35003
Epoch time:      10315.55687047
Element set:     435
Inclination:      040.4580 deg
RA of node:       034.9094 deg
Eccentricity:    0.0022704
Arg of perigee:   051.3050 deg
Mean anomaly:     308.9791 deg
Mean motion:   15.48887113 rev/day
Decay rate:     1.6817e-04 rev/day^2
Epoch rev:            8354
Checksum:              288

Satellite: CP6
Catalog number: 35004
Epoch time:      10316.21829784
Element set:     434
Inclination:      040.4594 deg
RA of node:       028.4353 deg
Eccentricity:    0.0021720
Arg of perigee:   062.1650 deg
Mean anomaly:     298.1441 deg
Mean motion:   15.50525360 rev/day
Decay rate:     2.1143e-04 rev/day^2
Epoch rev:            8366
Checksum:              266

Satellite: AEROCUB3
Catalog number: 35005
Epoch time:      10316.24390009
Element set:     517
Inclination:      040.4648 deg
RA of node:       012.6913 deg
Eccentricity:    0.0022667
Arg of perigee:   094.3489 deg
Mean anomaly:     265.9928 deg
Mean motion:   15.69527473 rev/day
Decay rate:    1.49423e-03 rev/day^2
Epoch rev:            8384
Checksum:              317

